Miles City, MT

2:07 PM MST on February 24, 2017 (GMT -0700)
Wiley

Weather History for KMLS - January, 2013

Change the Weather History Date:

Wednesday, January 2, 2013

  Actual Average Record
Temperature  
Mean Temperature 17 °F 18 °F  
Max Temperature 29 °F 29 °F 50 °F (1962)
Min Temperature 5 °F 8 °F -23 °F (1991)
Degree Days  
Heating Degree Days 48 46  
Month to date heating degree days 95 93  
Since 1 July heating degree days 3005 3277  
Cooling Degree Days 0 0  
Month to date cooling degree days 0 0  
Year to date cooling degree days 0 0  
Moisture  
Dew Point 14 °F    
Average Humidity 75    
Maximum Humidity 88    
Minimum Humidity 62    
Precipitation  
Precipitation T in 0.01 in 0.09 in (1989)
Month to date precipitation 0.01 0.02  
Year to date precipitation 0.01 0.02  
Sea Level Pressure  
Sea Level Pressure 30.29 in    
Wind  
Wind Speed 13 mph (WNW)    
Max Wind Speed 20 mph    
Max Gust Speed 30 mph    
Visibility 9 miles    
Events Snow    
T = Trace of Precipitation, MM = Missing Value Source: NWS Daily Summary

Daily Weather History Graph

Daily Weather History Graph

Search for Another Location

Airport or City:

Trip Planner

Search our weather history database for the weather conditions in past years. The results will help you decide how hot, cold, wet, or windy it might be!

Date:

Astronomy

Jan. 02, 2013 Rise Set
Actual Time 7:47 AM MST 4:28 PM MST
Civil Twilight 7:12 AM MST 5:03 PM MST
Nautical Twilight 6:34 AM MST 5:41 PM MST
Astronomical Twilight 5:57 AM MST 6:18 PM MST
Moon 10:25 PM MST (1/2) 10:10 AM MST (1/2)
Length of Visible Light 9h 50m
Length of Day
8h 41m
Waning Gibbous, 74% of the Moon is Illuminated
Jan 2
Waning Gibbous
Jan 4
Last Quarter
Jan 11
New
Jan 18
First Quarter
Jan 26
Full

Hourly Weather History & Observations

Time (MST) Temp. Windchill Dew Point Humidity Pressure Visibility Wind Dir Wind Speed Gust Speed Precip Events Conditions
12:53 AM 28.0 °F 14.9 °F 19.0 °F 69% 30.18 in 10.0 mi WNW 19.6 mph - N/A   Overcast
1:31 AM 28.4 °F 15.1 °F 19.4 °F 69% 30.10 in 10.0 mi NW 20.7 mph - N/A   Overcast
1:42 AM 28.4 °F 17.5 °F 19.4 °F 69% 30.11 in 10.0 mi NW 13.8 mph - N/A   Overcast
1:50 AM 28.4 °F 19.7 °F 19.4 °F 69% 30.11 in 10.0 mi NW 9.2 mph - N/A   Overcast
1:53 AM 28.0 °F 20.0 °F 19.9 °F 72% 30.20 in 10.0 mi WNW 8.1 mph - N/A   Overcast
2:53 AM 28.9 °F 17.7 °F 19.0 °F 67% 30.20 in 10.0 mi West 15.0 mph - N/A   Overcast
3:53 AM 28.9 °F 17.3 °F 18.0 °F 64% 30.21 in 10.0 mi WNW 16.1 mph - N/A   Overcast
5:53 AM 19.9 °F 11.1 °F 10.9 °F 68% 30.23 in 10.0 mi West 6.9 mph - N/A   Scattered Clouds
6:53 AM 19.9 °F 7.3 °F 10.0 °F 65% 30.22 in 10.0 mi West 12.7 mph - N/A   Overcast
7:53 AM 21.9 °F 8.7 °F 10.9 °F 63% 30.25 in 10.0 mi WNW 15.0 mph - N/A   Overcast
8:53 AM 19.9 °F 6.7 °F 10.0 °F 65% 30.26 in 10.0 mi WNW 13.8 mph - N/A   Mostly Cloudy
9:35 AM 21.2 °F 6.4 °F 10.4 °F 63% 30.17 in 10.0 mi WNW 18.4 mph - N/A   Overcast
9:53 AM 21.9 °F 7.8 °F 12.0 °F 66% 30.27 in 10.0 mi WNW 17.3 mph - N/A   Overcast
10:53 AM 25.0 °F 11.7 °F 15.1 °F 66% 30.29 in 10.0 mi NW 17.3 mph - N/A   Overcast
11:53 AM 25.0 °F 10.9 °F 16.0 °F 69% 30.30 in 10.0 mi NW 19.6 mph - N/A   Overcast
12:53 PM 25.0 °F 11.3 °F 17.1 °F 72% 30.32 in 10.0 mi NW 18.4 mph - N/A   Overcast
1:13 PM 24.8 °F 11.5 °F 17.6 °F 74% 30.23 in 2.5 mi NW 17.3 mph - 0.00 in Snow Light Snow
1:35 PM 24.8 °F 12.4 °F 17.6 °F 74% 30.23 in 5.0 mi NW 15.0 mph - 0.00 in Snow Light Snow
1:53 PM 25.0 °F 12.2 °F 18.0 °F 75% 30.33 in 6.0 mi NW 16.1 mph - 0.00 in Snow Light Snow
2:53 PM 25.0 °F 12.6 °F 17.1 °F 72% 30.34 in 10.0 mi NW 15.0 mph - 0.00 in   Overcast
3:53 PM 24.1 °F 12.0 °F 17.1 °F 75% 30.37 in 10.0 mi NW 13.8 mph - N/A   Overcast
4:53 PM 24.1 °F 11.5 °F 16.0 °F 71% 30.40 in 9.0 mi NNW 15.0 mph - 0.00 in Snow Light Snow
5:53 PM 24.1 °F 13.1 °F 16.0 °F 71% 30.41 in 10.0 mi NW 11.5 mph - 0.00 in   Overcast
6:53 PM 23.0 °F 14.7 °F 16.0 °F 74% 30.42 in 10.0 mi WNW 6.9 mph - N/A   Unknown
7:15 PM 21.2 °F 12.6 °F 15.8 °F 80% 30.30 in 10.0 mi WNW 6.9 mph - N/A   Overcast
7:53 PM 15.1 °F 5.2 °F 10.9 °F 84% 30.43 in 10.0 mi West 6.9 mph - N/A   Mostly Cloudy
8:06 PM 14.0 °F 5.1 °F 10.4 °F 86% 30.30 in 10.0 mi West 5.8 mph - N/A   Scattered Clouds
8:53 PM 8.1 °F -5.3 °F 5.0 °F 87% 30.45 in 10.0 mi WNW 9.2 mph - N/A   Clear
9:53 PM 7.0 °F -5.7 °F 3.9 °F 87% 30.46 in 10.0 mi NW 8.1 mph - N/A   Clear
10:53 PM 6.1 °F -6.8 °F 1.9 °F 83% 30.44 in 10.0 mi WNW 8.1 mph - N/A   Clear
11:53 PM 6.1 °F -6.8 °F 3.0 °F 87% 30.41 in 10.0 mi SW 8.1 mph - N/A   Clear